Broughton-in-Furness, United Kingdom
Current Conditions -  °F | °C
As of 9:20 AM on Friday 19 Dec 2014 (Local Time) from EGNH Reporting Station
Rain Showers Rain Showers  
Wind Chill: 38°   Ceiling: Unl
Heat Index: 46°   Visibility: 6mi
Dew Point: 37°   Wind: 28mph
Humidity: 71%   Direction: 270°W
Pressure: 29.83"   Gusts: NA
Location:  54.28°N, 3.21°W
Report Text: EGNH 190920Z 27024KT 9999 VCSH FEW029 08/03 Q1010
Loading
Personal Weather Stations






























Interactive Weather Map New forecast layout! Learn more

10-Day Weather Forecast

Advertisements
Track Severe Weather on mobile